Location: Coopersdale
(40.3556°N, 78.9372°W)
Time: 14:08:35
(UTC+00:00)

Transit 2A - Visible Passes

Search period start: 23 January 2021 00:00
Search period end: 02 February 2021 00:00
Orbit: 598 x 960 km, 66.7° (Epoch: 22 January)

Date Brightness Start Highest point End Pass type
(mag) Time Alt. Az. Time Alt. Az. Time Alt. Az.
23 Jan 7.9 09:52:26 21° N 09:52:26 21° N 09:54:09 10° NNE visible
24 Jan 8.6 09:19:35 13° NNE 09:19:35 13° NNE 09:20:06 10° NNE visible
24 Jan 8.0 11:00:05 12° NNW 11:00:05 12° NNW 11:01:14 10° NNW visible
25 Jan 8.2 10:27:08 12° N 10:27:08 12° N 10:27:51 10° N visible
26 Jan 8.5 09:54:06 10° N 09:54:06 10° N 09:54:08 10° N visible
